Douglas Bisbee, AZ

4:19 AM MST on September 24, 2017 (GMT -0700)
Bisbee Douglas International

Weather History for KDUG - February, 2014

Change the Weather History Date:

Friday, February 7, 2014

  Actual Average Record
Temperature  
Mean Temperature 50 °F 48 °F  
Max Temperature 63 °F 65 °F 80 °F (1996)
Min Temperature 36 °F 32 °F 14 °F (1964)
Degree Days  
Heating Degree Days 15 17  
Month to date heating degree days 146 119  
Since 1 July heating degree days 1774 1724  
Cooling Degree Days 0 0  
Month to date cooling degree days 0 0  
Year to date cooling degree days 0 0  
Moisture  
Dew Point 27 °F    
Average Humidity 48    
Maximum Humidity 76    
Minimum Humidity 20    
Precipitation  
Precipitation 0.00 in 0.02 in 0.40 in (1966)
Month to date precipitation T 0.18  
Year to date precipitation T 0.92  
Sea Level Pressure  
Sea Level Pressure 30.02 in    
Wind  
Wind Speed 6 mph (NNW)    
Max Wind Speed 20 mph    
Max Gust Speed 27 mph    
Visibility 10 miles    
Events      
T = Trace of Precipitation, MM = Missing Value Source: NWS Daily Summary

Daily Weather History Graph

Daily Weather History Graph

Search for Another Location

Airport or City:

Trip Planner

Search our weather history database for the weather conditions in past years. The results will help you decide how hot, cold, wet, or windy it might be!

Date:

Astronomy

Feb. 07, 2014 Rise Set
Actual Time 7:06 AM MST 5:58 PM MST
Civil Twilight 6:41 AM MST 6:23 PM MST
Nautical Twilight 6:12 AM MST 6:52 PM MST
Astronomical Twilight 5:44 AM MST 7:21 PM MST
Moon 12:16 PM MST (2/7) 1:22 AM MST (2/7)
Length of Visible Light 11h 42m
Length of Day
10h 51m
First Quarter, 60% of the Moon is Illuminated
Feb 7
First Quarter
Feb 14
Full
Feb 22
Last Quarter
Mar 1
New
Mar 8
First Quarter

Hourly Weather History & Observations

Time (MST) Temp. Windchill Dew Point Humidity Pressure Visibility Wind Dir Wind Speed Gust Speed Precip Events Conditions
12:56 AM 46.0 °F 41.9 °F 23.0 °F 40% 29.91 in 10.0 mi North 8.1 mph - N/A   Overcast
1:56 AM 44.1 °F 37.1 °F 32.0 °F 63% 29.91 in 10.0 mi North 15.0 mph - N/A   Overcast
2:56 AM 43.0 °F 39.5 °F 32.0 °F 65% 29.91 in 10.0 mi NNW 5.8 mph - N/A   Overcast
3:56 AM 39.0 °F 34.0 °F 30.0 °F 70% 29.94 in 10.0 mi NNW 6.9 mph - N/A   Mostly Cloudy
4:56 AM 39.0 °F - 30.0 °F 70% 29.96 in 10.0 mi Calm Calm - N/A   Overcast
5:56 AM 37.0 °F 34.5 °F 30.0 °F 76% 30.00 in 10.0 mi SSW 3.5 mph - N/A   Overcast
6:56 AM 37.0 °F - 30.0 °F 76% 30.03 in 10.0 mi Calm Calm - N/A   Partly Cloudy
7:56 AM 37.9 °F 35.5 °F 28.9 °F 70% 30.05 in 10.0 mi ESE 3.5 mph - N/A   Clear
8:56 AM 46.0 °F 44.8 °F 32.0 °F 58% 30.06 in 10.0 mi East 3.5 mph - N/A   Clear
9:56 AM 48.9 °F - 30.9 °F 50% 30.07 in 10.0 mi Calm Calm - N/A   Clear
10:56 AM 53.1 °F - 28.9 °F 40% 30.08 in 10.0 mi Calm Calm - N/A   Clear
11:56 AM 57.0 °F - 28.0 °F 33% 30.06 in 10.0 mi Variable 3.5 mph - N/A   Clear
12:56 PM 59.0 °F - 27.0 °F 29% 30.02 in 10.0 mi North - - N/A   Clear
1:56 PM 59.0 °F - 26.1 °F 28% 30.00 in 10.0 mi Calm Calm - N/A   Clear
2:56 PM 61.0 °F - 25.0 °F 25% 29.99 in 10.0 mi WNW 10.4 mph 17.3 mph N/A   Clear
3:56 PM 63.0 °F - 21.9 °F 21% 29.98 in 10.0 mi SW 18.4 mph - N/A   Partly Cloudy
4:56 PM 62.1 °F - 21.9 °F 21% 30.00 in 10.0 mi WSW 8.1 mph - N/A   Clear
5:56 PM 57.0 °F - 23.0 °F 27% 30.04 in 10.0 mi NW 8.1 mph - N/A   Clear
6:56 PM 50.0 °F - 21.9 °F 33% 30.07 in 10.0 mi NNW 8.1 mph - N/A   Clear
7:56 PM 50.0 °F - 26.1 °F 39% 30.09 in 10.0 mi North 9.2 mph - N/A   Clear
8:56 PM 45.0 °F 39.7 °F 26.1 °F 48% 30.09 in 10.0 mi North 10.4 mph - N/A   Clear
9:56 PM 42.1 °F 36.6 °F 25.0 °F 51% 30.10 in 10.0 mi North 9.2 mph - N/A   Clear
10:56 PM 39.0 °F 33.4 °F 25.0 °F 57% 30.10 in 10.0 mi North 8.1 mph - N/A   Clear
11:56 PM 39.0 °F 33.4 °F 25.0 °F 57% 30.09 in 10.0 mi North 8.1 mph - N/A   Clear